www.pogodaiklimat.ru
ПОГОДА в Кушрабаде

Архив погоды в Кушрабаде (Самаркандская область, Узбекистан)

Время
и дата
03:00 17.04
03:10 17.04
03:20 17.04
03:30 17.04
03:40 17.04
03:50 17.04
04:00 17.04
04:10 17.04
04:20 17.04
04:30 17.04
04:40 17.04
04:50 17.04
05:00 17.04
05:10 17.04
05:20 17.04
05:30 17.04
05:40 17.04
05:50 17.04
06:00 17.04
06:10 17.04
06:20 17.04
06:30 17.04
06:40 17.04
06:50 17.04
07:00 17.04
07:10 17.04
07:20 17.04
08:30 17.04
08:50 17.04
10:40 17.04
16:20 17.04
16:40 17.04
16:50 17.04
17:00 17.04
17:10 17.04
17:20 17.04
17:30 17.04
17:40 17.04
17:50 17.04
18:00 17.04
18:10 17.04
18:20 17.04
18:30 17.04
18:40 17.04
18:50 17.04
19:00 17.04
19:10 17.04
19:20 17.04
19:30 17.04
19:40 17.04
19:50 17.04
20:00 17.04
20:10 17.04
20:20 17.04
20:30 17.04
20:40 17.04
20:50 17.04
21:00 17.04
21:10 17.04
21:20 17.04
21:30 17.04
21:40 17.04
21:50 17.04
22:00 17.04
22:10 17.04
22:20 17.04
22:30 17.04
22:40 17.04
22:50 17.04
23:00 17.04
23:10 17.04
23:30 17.04
23:40 17.04
00:00 18.04
00:10 18.04
00:20 18.04
00:30 18.04
01:00 18.04
01:10 18.04
01:20 18.04
01:30 18.04
01:40 18.04
01:50 18.04
02:00 18.04
02:10 18.04
02:20 18.04
02:30 18.04
02:40 18.04
02:50 18.04
03:00 18.04
03:10 18.04
03:20 18.04
03:40 18.04
03:50 18.04
04:00 18.04
04:10 18.04
04:20 18.04
04:30 18.04
04:50 18.04
05:10 18.04
05:40 18.04
05:50 18.04
06:10 18.04
06:20 18.04
06:30 18.04
06:40 18.04
06:50 18.04
07:00 18.04
07:10 18.04
07:20 18.04
07:50 18.04
08:00 18.04
08:10 18.04
08:20 18.04
10:50 18.04
11:30 18.04
12:10 20.04
12:20 20.04
12:30 20.04
12:50 20.04
13:10 20.04
13:20 20.04
13:30 20.04
13:40 20.04
13:50 20.04
14:00 20.04
14:10 20.04
14:30 20.04
14:40 20.04
14:50 20.04
15:10 20.04
15:20 20.04
15:30 20.04
15:40 20.04
15:50 20.04
16:00 20.04
16:20 20.04
16:30 20.04
16:50 20.04
17:00 20.04
17:20 20.04
17:30 20.04
17:40 20.04
17:50 20.04
Ветер
(напр.,м/с)
Видимость Явления Солнечная радиация
(Вт/м2)
Т
(С)
Тd
(С)
f
(%)
Тe
(С)
Тes
(С)
Комфортность P
(гПа)
Po
(гПа)
Тmin
(С)
Tmax
(С)
R
(мм)
С 1.7
{3.4}
+9.7 +9.7 100 +8 +8 1021.8 935.9 +9.7 +9.2
С 1.3
{2.7}
+9.7 +9.7 100 +9 +9 1021.9 936.0 +9.7 +9.7
СЗ 1.0
{1.8}
+9.5 +9.5 100 +9 +9 1021.9 936.0 +9.7 +9.5
СВ 0.6
{1.2}
+9.1 +9.1 100 +9 +9 1022.0 936.1 +9.5 +9.1
СВ 0.7
{1.5}
+8.8 +8.8 100 +8 +8 1022.0 936.1 +9.1 +8.8
СВ 0.8
{2.0}
+8.7 +8.7 100 +8 +8 1022.0 936.1 +8.8 +8.6
С 1.1
{1.6}
+8.5 +8.5 100 +7 +7 1022.0 936.1 +8.7 +8.5
С 1.2
{2.0}
+8.3 +8.3 100 +7 +7 1021.9 936.0 +8.5 +8.3
С 0.8
{2.0}
+8.1 +8.1 100 +7 +7 1021.8 935.9 +8.3 +8.1
С 0.5
{1.3}
+7.9 +7.9 100 +8 +8 1021.8 935.9 +8.1 +7.9
ЮЗ 0.4
{0.7}
+7.7 +7.7 100 +8 +8 1021.9 936.0 +7.9 +7.6
СЗ 0.7
{1.5}
+7.8 +7.8 100 +7 +7 1022.0 936.1 +7.8 +7.6
С 0.9
{1.3}
+8.2 +8.2 100 +7 +7 1022.0 936.1 +8.2 +7.8
СВ 0.9
{2.2}
+8.0 +8.0 100 +7 +7 1021.9 936.0 +8.2 +8.0
С 0.7
{1.8}
+7.7 +7.7 100 +7 +7 1021.9 936.0 +8.0 +7.6
СЗ 1.4
{2.0}
+7.6 +7.6 100 +6 +6 1021.9 936.0 +7.8 +7.6
СЗ 1.2
{2.2}
+7.8 +7.8 100 +6 +6 1021.9 936.0 +7.8 +7.6
СЗ 1.1
{2.5}
+8.0 +8.0 100 +7 +7 1021.9 936.0 +8.0 +7.8
СЗ 1.5
{2.3}
+8.1 +8.1 100 +6 +6 1021.9 936.0 +8.1 +8.0
СЗ 1.6
{3.0}
+8.5 +8.5 100 +7 +7 1021.9 936.0 +8.4 +8.1
СЗ 1.4
{2.4}
+8.6 +8.6 100 +7 +7 1022.0 936.1 +8.6 +8.5
СЗ 1.6
{2.2}
+8.6 +8.6 100 +7 +7 1022.0 936.1 +8.7 +8.6
СЗ 1.8
{2.9}
+9.1 +9.1 100 +7 +7 1021.9 936.0 +9.1 +8.6
С 1.1
{2.2}
+9.7 +9.7 100 +9 +9 1021.9 936.0 +9.7 +9.1
С 0.9
{1.6}
+10.1 +10.1 100 +10 +10 1022.0 936.1 +10.1 +9.7
СЗ 1.3
{2.1}
+10.7 +10.7 100 +10 +10 1022.1 936.2 +10.7 +10.1
СЗ 1.5
{2.1}
+11.2 +11.2 100 +10 +10 1022.0 936.1 +11.2 +10.7
СВ 2.8
{6.2}
+16.5 +9.8 64 +16 +16 1021.9 936.0 +16.5 +16.3
СВ 2.7
{5.4}
+17.1 +9.5 61 +17 +17 1021.9 936.0 +17.1 +16.9
СВ 4.6
{10.1}
+18.2 +7.8 51 +18 +18 1021.7 935.8 +18.4 +18.2
СВ 5.3
{11.5}
+19.4 +7.1 45 +20 +20 1018.2 932.6 +19.4 +19.2
СВ 4.9
{10.0}
+19.2 +7.0 45 +20 +20 1017.9 932.3 +19.3 +19.1
СВ 4.7
{10.7}
+19.1 +7.3 46 +19 +19 1017.8 932.2 +19.4 +19.2
СВ 4.9
{9.3}
+19.1 +7.3 46 +19 +19 1017.7 932.1 +19.2 +19.1
СВ 4.9
{11.2}
+19.0 +7.2 46 +19 +19 1017.6 932.0 +19.2 +18.9
СВ 4.8
{9.5}
+18.8 +7.9 49 +19 +19 1017.6 932.0 +19.0 +18.8
СВ 4.7
{10.6}
+18.8 +7.9 49 +19 +19 1017.6 932.0 +18.8 +18.7
СВ 4.2
{11.8}
+18.7 +8.3 51 +19 +19 1017.5 931.9 +18.8 +18.7
СВ 4.6
{9.1}
+18.5 +8.0 50 +19 +19 1017.4 931.8 +18.7 +18.5
СВ 4.6
{10.1}
+18.3 +8.5 53 +18 +18 1017.3 931.7 +18.5 +18.3
СВ 3.6
{7.2}
+18.2 +8.8 54 +18 +18 1017.4 931.8 +18.3 +18.2
В 3.1
{7.5}
+18.0 +9.3 57 +18 +18 1017.5 931.9 +18.2 +18.0
СВ 3.0
{8.6}
+17.8 +9.4 58 +18 +18 1017.5 931.9 +18.0 +17.8
СВ 3.0
{7.8}
+17.6 +9.3 59 +18 +18 1017.5 931.9 +17.8 +17.6
СВ 3.1
{7.4}
+17.2 +9.5 60 +17 +17 1017.5 931.9 +17.6 +17.2
СВ 1.8
{4.8}
+16.9 +9.7 63 +17 +17 1017.4 931.8 +17.2 +16.9
СВ 2.8
{7.1}
+16.6 +9.2 61 +16 +16 1017.2 931.6 +16.9 +16.6
СВ 3.8
{7.9}
+16.5 +9.2 62 +16 +16 1017.1 931.5 +16.6 +16.5
СВ 3.6
{7.1}
+16.2 +9.3 64 +16 +16 1017.2 931.6 +16.5 +16.2
СВ 2.9
{5.8}
+16.1 +8.8 62 +16 +16 1017.3 931.7 +16.2 +16.1
С 2.1
{5.3}
+15.9 +8.4 61 +16 +16 1017.3 931.7 +16.2 +15.8
С 1.9
{4.0}
+16.2 +8.3 60 +16 +16 1017.3 931.7 +16.3 +15.9
С 1.9
{3.9}
+15.8 +8.1 60 +16 +16 1017.3 931.7 +16.2 +15.8
С 2.4
{4.7}
+15.5 +8.3 63 +15 +15 1017.4 931.8 +15.8 +15.4
С 3.5
{6.1}
+15.9 +8.1 60 +15 +15 1017.4 931.8 +15.9 +15.4
СВ 4.3
{8.7}
+16.1 +7.9 58 +15 +15 1017.4 931.8 +16.2 +15.8
СВ 3.4
{6.7}
+15.7 +8.0 60 +15 +15 1017.4 931.8 +16.1 +15.7
СВ 2.1
{4.7}
+15.7 +7.5 58 +16 +16 1017.4 931.8 +15.7 +15.5
СВ 3.3
{12.1}
+16.5 +7.4 55 +16 +16 1017.3 931.7 +16.5 +15.7
СВ 3.2
{7.4}
+16.3 +8.1 58 +16 +16 1017.4 931.8 +16.5 +16.2
СВ 3.2
{7.2}
+16.0 +8.8 62 +16 +16 1017.4 931.8 +16.3 +16.0
СВ 2.4
{4.9}
+15.4 +9.7 69 +15 +15 1017.5 931.9 +16.0 +15.4
СВ 1.8
{3.8}
+15.1 +10.3 73 +15 +15 1017.5 931.9 +15.4 +15.1
СВ 1.7
{3.7}
+14.9 +11.2 79 +15 +15 1017.5 931.9 +15.1 +14.9
СВ 1.4
{2.9}
+14.6 +11.4 81 +15 +15 1017.4 931.8 +14.9 +14.6
С 1.4
{2.3}
+14.1 +11.0 82 +14 +14 1017.4 931.8 +14.6 +14.0
СВ 1.3
{3.4}
+14.5 +10.1 75 +15 +15 1017.3 931.7 +14.5 +14.1
СВ 1.2
{3.3}
+14.7 +9.8 72 +15 +15 1017.3 931.7 +14.7 +14.5
СВ 1.4
{4.6}
+15.1 +9.4 69 +15 +15 1017.1 931.5 +15.1 +14.7
СВ 1.0
{3.4}
+14.7 +9.8 73 +15 +15 1017.0 931.4 +15.1 +14.7
С 0.5
{2.0}
+13.9 +10.3 79 +15 +15 1016.8 931.2 +14.7 +13.9
СЗ 1.4
{3.6}
+15.1 +8.4 64 +15 +15 1016.5 931.0 +15.1 +14.4
С 1.4
{3.5}
+14.7 +8.8 68 +15 +15 1016.5 931.0 +15.1 +14.8
СВ 1.3
{4.1}
+14.5 +8.6 68 +15 +15 1016.5 931.0 +14.6 +14.1
С 1.0
{2.6}
+14.4 +8.9 70 +15 +15 1016.4 930.9 +14.6 +14.4
СЗ 1.1
{2.5}
+13.5 +9.7 77 +14 +14 1016.3 930.8 +14.4 +13.5
СЗ 0.9
{1.8}
+12.9 +10.1 83 +13 +13 1016.2 930.7 +13.5 +12.9
С 2.4
{3.9}
+12.3 +12.3 100 +11 +11 1015.8 930.3 +12.4 +12.0
С 2.1
{4.0}
+12.4 +12.1 98 +11 +11 1015.6 930.1 +12.4 +12.2
СЗ 1.8
{3.5}
+12.3 +12.1 99 +11 +11 1015.5 930.0 +12.4 +12.3
СЗ 1.9
{2.7}
+12.4 +11.5 95 +11 +11 1015.5 930.0 +12.4 +12.3
СЗ 2.0
{2.9}
+12.4 +11.1 92 +11 +11 1015.3 929.8 +12.4 +12.3
СЗ 2.3
{3.4}
+12.8 +9.8 82 +12 +12 1015.0 929.6 +12.8 +12.4
СЗ 2.3
{3.5}
+13.0 +9.7 80 +12 +12 1014.9 929.5 +13.0 +12.8
СЗ 1.8
{2.8}
+12.8 +9.6 81 +12 +12 1014.8 929.4 +13.0 +12.8
СЗ 2.0
{3.1}
+12.5 +9.4 81 +12 +12 1014.7 929.3 +12.8 +12.5
СЗ 2.2
{3.4}
+12.5 +9.1 80 +11 +11 1014.6 929.2 +12.7 +12.5
СЗ 2.2
{3.7}
+12.8 +8.7 77 +12 +12 1014.4 929.0 +12.8 +12.5
С 1.4
{2.8}
+12.3 +9.1 81 +12 +12 1014.4 929.0 +12.8 +12.4
СЗ 1.6
{2.5}
+11.6 +10.1 90 +11 +11 1014.3 928.9 +12.3 +11.7
СЗ 1.6
{2.8}
+11.7 +9.5 86 +11 +11 1014.2 928.8 +11.7 +11.6
С 1.7
{3.5}
+12.3 +8.5 78 +12 +12 1014.1 928.7 +12.3 +11.7
С 2.0
{3.5}
+12.0 +8.8 81 +11 +11 1014.0 928.6 +12.9 +12.0
СЗ 2.0
{2.6}
+11.2 +9.6 90 +10 +10 1013.9 928.5 +12.0 +11.2
СЗ 1.3
{1.8}
+11.1 +9.5 90 +10 +10 1013.9 928.5 +11.2 +11.1
З 1.6
{2.6}
+10.9 +9.4 90 +10 +10 1013.7 928.4 +11.1 +10.9
СЗ 1.0
{2.9}
+11.2 +8.3 83 +11 +11 1013.9 928.5 +11.3 +10.9
Ю 0.8
{2.2}
+10.5 +10.0 97 +10 +10 1013.9 928.5 +11.2 +10.4
З 0.8
{2.1}
+10.3 +10.3 100 +10 +10 1013.6 928.3 +10.3 +10.0
СЗ 1.5
{3.1}
+10.9 +8.7 86 +10 +10 1013.6 928.3 +11.0 +10.2
С 1.2
{2.2}
+10.9 +7.9 82 +10 +10 1013.6 928.3 +11.2 +10.9
СВ 1.3
{3.9}
+10.8 +7.5 80 +10 +10 1013.7 928.4 +11.0 +10.6
С 1.5
{3.2}
+11.3 +7.3 76 +11 +11 1013.7 928.4 +12.6 +11.3
С 0.8
{2.8}
+10.6 +8.0 84 +11 +11 1013.7 928.4 +11.3 +10.5
СВ 2.0
{5.3}
+14.5 +5.0 53 +14 +14 1013.7 928.4 +14.4 +10.6
СВ 1.7
{4.3}
+15.0 +5.6 53 +15 +15 1013.8 928.5 +15.0 +14.5
СВ 1.2
{5.0}
+15.2 +5.6 53 +16 +16 1013.8 928.5 +15.3 +15.0
З 1.0
{1.9}
+15.2 +6.3 55 +16 +16 1014.0 928.6 +15.4 +15.2
СЗ 1.2
{1.8}
+15.1 +6.1 55 +16 +16 1014.0 928.6 +15.2 +15.0
СЗ 1.3
{2.2}
+15.2 +6.3 55 +16 +16 1013.8 928.5 +15.2 +15.1
СВ 3.1
{6.6}
+18.2 +7.2 48 +18 +18 1013.6 928.3 +18.2 +17.4
СВ 3.6
{7.2}
+18.7 +7.2 47 +19 +19 1013.5 928.2 +18.6 +18.2
СВ 3.6
{7.8}
+19.1 +7.4 47 +20 +20 1013.4 928.1 +19.1 +18.7
СВ 3.8
{8.1}
+19.4 +7.3 45 +20 +20 1013.4 928.1 +19.4 +19.1
В 3.6
{7.3}
+21.9 +7.2 38 +23 +23 комфорт 1013.2 927.9 +22.2 +22.1
СВ 4.1
{9.1}
+22.1 +6.2 36 +23 +23 комфорт 1012.9 927.6 +22.6 +22.1
Ю 2.6
{4.7}
+22.7 +11.0 47 +25 +25 комфорт 1011.1 925.9 +22.8 +22.3
ЮЗ 2.7
{6.4}
+22.9 +11.8 50 +25 +25 комфорт 1011.1 925.9 +22.9 +22.7
ЮЗ 2.7
{5.0}
+23.5 +14.2 56 +26 +26 жарко 1011.1 925.9 +23.5 +22.9
ЮЗ 3.2
{6.3}
+23.9 +11.4 46 +25 +25 комфорт 1011.1 925.9 +24.0 +23.7
Ю 3.7
{6.1}
+23.9 +11.4 45 +25 +25 комфорт 1010.9 925.8 +24.0 +23.5
ЮЗ 3.2
{6.6}
+24.2 +11.8 46 +26 +26 жарко 1010.9 925.8 +24.1 +23.7
ЮЗ 3.3
{5.9}
+24.2 +11.5 45 +26 +26 жарко 1010.9 925.8 +24.4 +24.1
ЮЗ 3.4
{6.4}
+24.4 +12.7 48 +26 +26 жарко 1010.9 925.8 +24.3 +24.1
ЮЗ 3.4
{5.5}
+24.2 +10.8 43 +25 +25 комфорт 1010.9 925.8 +24.6 +24.2
ЮЗ 2.9
{5.0}
+23.8 +10.8 44 +25 +25 комфорт 1010.9 925.8 +24.2 +23.8
Ю 3.0
{5.2}
+24.5 +10.6 42 +26 +26 жарко 1010.8 925.7 +24.5 +23.8
ЮЗ 2.7
{4.4}
+24.6 +10.3 40 +26 +26 жарко 1010.7 925.6 +24.7 +24.5
ЮЗ 2.7
{5.4}
+24.9 +12.5 46 +27 +27 жарко 1010.6 925.5 +25.0 +24.5
ЮЗ 3.3
{6.1}
+24.6 +11.2 43 +26 +26 жарко 1010.6 925.5 +25.0 +24.6
Ю 3.0
{5.5}
+24.7 +10.6 41 +26 +26 жарко 1010.5 925.4 +24.8 +24.6
ЮЗ 3.1
{5.1}
+24.7 +10.0 40 +26 +26 жарко 1010.5 925.4 +24.9 +24.7
Ю 3.4
{6.3}
+24.9 +11.1 42 +26 +26 жарко 1010.6 925.5 +24.9 +24.6
Ю 3.2
{5.2}
+25.0 +11.3 42 +26 +26 жарко 1010.6 925.5 +25.3 +24.9
Ю 3.0
{5.4}
+25.2 +10.8 40 +26 +26 жарко 1010.7 925.6 +25.4 +25.0
Ю 3.0
{5.9}
+25.2 +11.1 41 +26 +26 жарко 1010.8 925.7 +25.3 +25.2
Ю 3.0
{6.9}
+24.4 +10.2 41 +25 +25 комфорт 1010.9 925.8 +24.6 +24.4
З 3.2
{5.7}
+24.4 +10.1 40 +25 +25 комфорт 1011.1 925.9 +24.9 +24.4
З 2.1
{3.6}
+24.3 +10.6 42 +25 +25 комфорт 1011.1 925.9 +24.4 +24.1
З 2.0
{3.3}
+24.3 +9.4 39 +25 +25 комфорт 1011.2 926.0 +24.3 +24.2
СЗ 1.4
{3.3}
+23.8 +10.6 43 +25 +25 комфорт 1011.4 926.2 +24.3 +23.8
СЗ 2.3
{4.0}
+23.0 +11.7 49 +25 +25 комфорт 1011.5 926.3 +23.8 +23.0
СЗ 1.7
{2.7}
+22.9 +10.6 46 +25 +25 комфорт 1011.6 926.4 +23.0 +22.9
СЗ 1.0
{1.9}
+22.9 +9.2 42 +24 +24 комфорт 1011.6 926.4 +22.9 +22.9
Местоположение метеостанции Кушрабад (Самаркандская область, Узбекистан): широта 40.24 долгота 66.65 высота над уровнем моря 0 м.
В архиве по умолчанию представлена погода в Кушрабаде за последние 1-2 суток. Обновление информации о фактической погоде в базе происходит ежечасно! Архивные данные за месяц целиком и за предыдущие месяцы Вы можете получить, выбрав интересующий диапазон дат из раскрывающегося списка и нажав кнопку "Ввод!".
*Определитесь, кто Вы:
Внимание! Время в таблицах - местное (без учета летнего времени). Для получения всемирного времени необходимо вычесть поправку, которая равна 5 ч.
Смотрите также архив погоды на ближайших метеорологических станциях:
Партнеры нашего сайта:      
Пояснения к столбцам:
  • Ветер - указаны скорость ветра в м/с - средняя за 10 мин, порывы в срок и между сроками (в фигурных скобках) и направление, откуда дует ветер: С - северный,
  • СВ - северо-восточный, В - восточный, ЮВ - юго-восточный, Ю - южный, ЮЗ - юго-западный, З - западный, СЗ - северо-западный.
  • Видимость - горизонтальная дальность видимости в метрах или километрах. При видимости от 1 до 10 км при отсутствии осадков обычно наблюдается дымка, при ухудшении видимости до 1 км и менее - туман. В сухую погоду видимость может ухудшаться дымом, пылью или мглою.
  • Явления - указаны атмосферные явления, наблюдавшиеся в срок или в последний час перед сроком.
  • Солнечная радиация - мощность потока солнечного излучения на поверхность земли и предметов в Вт/м2.
  • T - Температура воздуха - температура, измеренная на высоте 2 м над землей.
  • Td - Температура точки росы - температура, при понижении до которой содержащийся в воздухе водяной пар достигнет насыщения.
  • f - Относительная влажность воздуха - влажноcть воздуха, измеренная на высоте 2 м над землей.
  • Te - Эффективная температура - температура, которую ощущает одетый по сезону человек в тени. Характеристика душности погоды. При расчете учитывается влияние влажности воздуха и скорости ветра на теплоощущения человека.
  • Tes - Эффективная температура на солнце - температура, которую ощущает человек, с поправкой на солнечный нагрев. Характеристика знойности погоды. Зависит от высоты солнца над горизонтом, облачности и скорости ветра. Ночью, в пасмурную погоду, а также при ветре 12 м/с и более поправка равна нулю.
  • P - Атмосферное давление - приведенное к уровню моря атмосферное давление.
  • Po - Атмосферное давление - измеренное на уровне метеостанции атмосферное давление.
  • Tmin - Минимальная температура - минимум температуры воздуха на высоте 2 м над землей.
  • Tmax - Максимальная температура - максимум температуры воздуха на высоте 2 м над землей.
  • R - Количество осадков - Количество выпавших осадков за период времени, мм. При наведении курсора мыши на число - период времени, за который выпало указанное количество осадков.